Location: Akdamlar
(36.8729°N, 30.5187°E)
Time: 19:51:43
(UTC+00:00)

Cosmos 2150 Rocket - Pass Details

Date: 18 September 2020
Orbit: 749 x 808 km, 74.0° (Epoch: 26 October)

Event Time Altitude Azimuth Distance (km) Brightness Sun altitude
Rises 17:02:16 0° 175° (S) 3,241 7.1 -13.1°
Reaches altitude 10° 17:04:46 10° 167° (SSE) 2,328 6.3 -13.6°
Maximum altitude 17:09:36 38° 101° (E) 1,201 4.5 -14.5°
Drops below altitude 10° 17:14:33 10° 35° (NE) 2,376 6.3 -15.5°
Sets 17:17:07 0° 27° (NNE) 3,317 7.2 -16.0°
